Lapse_Rate
5.8 5.7 6.0 6.0 5.8 5.8 5.9 6.0 6.2 6.4 6.6 6.6 6.6 6.6 6.5 6.1 5.8 5.7 5.3 5.4 5.8 5.7 5.6 5.7 5.6 5.3 5.4 5.5 5.5 5.3 5.5 5.5 5.9 6.3 6.2 6.1 6.2 5.9 6.0 5.9 5.8 5.7 5.5
6.1 5.9 6.0 5.9 5.7 5.7 5.6 6.0 6.3 6.4 6.5 6.6 6.7 6.7 6.5 6.5 6.3 6.2 6.0 6.0 6.0 5.9 5.7 5.6 5.6 5.5 5.3 5.0 5.3 5.3 5.0 5.5 5.6 5.7 5.9 5.7 5.8 5.7 6.0 5.9 6.0 5.8 5.7
5.7 5.8 5.6 5.4 5.8 5.9 6.0 6.2 6.2 6.4 6.6 6.6 6.6 6.5 6.5 6.5 6.5 6.2 6.1 5.9 5.8 5.9 5.9 5.7 5.6 5.5 5.4 5.2 4.9 5.1 5.4 5.5 5.5 5.8 5.2 5.4 5.9 5.6 6.1 6.1 6.4 6.3 5.9
5.7 5.7 5.7 5.8 5.8 5.9 6.2 6.4 6.5 6.5 6.6 6.7 6.7 6.7 6.6 6.5 6.5 6.4 6.2 6.1 6.1 5.9 5.8 5.8 5.9 5.8 5.6 5.5 5.3 5.0 4.9 5.0 5.3 5.3 5.5 5.7 5.7 5.7 5.3 6.2 6.5 6.4 6.0
5.8 5.9 5.9 5.9 6.2 6.3 6.3 6.4 6.6 6.7 6.9 7.0 6.8 6.6 6.5 6.5 6.3 6.3 6.3 6.3 6.3 6.2 6.2 6.2 6.2 6.0 5.9 5.6 5.3 5.4 5.1 5.1 5.1 5.1 5.2 5.5 5.8 6.0 5.7 5.9 6.2 6.2 6.2
5.8 6.0 6.2 6.4 6.4 6.5 6.6 6.8 6.7 6.8 6.8 6.7 6.6 6.5 6.4 6.3 6.0 6.1 6.2 6.2 6.1 6.0 6.0 6.0 6.1 6.1 6.1 5.9 5.5 5.4 5.3 5.3 5.3 5.0 5.2 5.2 5.4 5.6 5.6 5.6 5.7 6.0 6.3
6.2 6.3 6.3 6.6 6.6 6.7 6.7 6.7 6.4 6.3 6.2 6.1 6.1 6.1 6.2 6.2 6.2 6.1 6.1 6.1 6.2 6.1 6.2 6.2 6.0 5.9 5.9 5.9 5.8 5.6 5.4 5.3 5.4 5.2 5.0 5.2 5.2 5.4 5.2 5.4 5.5 5.8 6.1
5.8 6.0 6.4 6.5 6.5 6.5 6.3 6.0 6.1 6.1 6.0 5.9 5.8 5.8 5.9 6.0 6.1 6.1 6.1 6.1 6.2 6.2 6.3 6.4 6.3 5.9 5.7 5.7 5.4 5.4 5.4 5.4 5.4 5.4 5.1 5.1 5.0 5.2 5.1 5.2 5.4 5.6 5.9
6.1 6.2 6.2 6.0 5.9 5.9 5.9 6.0 6.0 5.9 5.9 6.0 6.0 5.9 5.8 5.8 5.9 6.0 6.1 6.0 6.0 6.0 6.0 6.0 6.2 6.3 6.1 5.8 5.8 5.5 5.3 5.3 5.1 5.1 5.2 5.3 5.2 5.3 5.3 5.3 5.6 5.4 5.7
5.9 5.9 5.9 5.8 5.8 5.9 6.0 5.9 5.9 6.0 6.0 6.0 5.8 5.7 5.6 5.6 5.6 5.6 5.7 5.7 5.8 5.9 5.9 5.8 5.7 6.0 5.9 5.6 5.7 5.4 5.3 5.3 5.2 5.0 5.1 5.3 5.2 5.3 5.3 5.2 5.3 5.4 5.4
5.9 5.8 5.6 5.7 5.9 5.9 5.9 5.9 5.9 5.7 5.6 5.6 5.5 5.4 5.2 5.1 5.1 5.1 5.2 5.3 5.5 5.7 6.0 6.1 5.9 5.7 5.7 5.4 5.3 5.4 5.1 4.8 4.8 4.8 4.8 4.8 4.9 5.1 5.4 5.4 5.4 5.1 5.2
5.8 5.7 5.8 5.9 5.9 5.9 5.9 5.8 5.6 5.5 5.4 5.4 5.2 5.0 5.0 5.0 4.9 4.9 4.8 4.8 5.0 5.3 5.6 6.2 6.4 6.1 5.6 5.1 5.0 4.9 4.8 4.4 4.4 4.5 4.5 4.6 4.7 4.8 5.1 5.3 5.2 5.0 5.1
5.7 5.8 6.0 5.9 5.9 5.9 5.7 5.5 5.4 5.3 5.2 5.1 5.1 5.1 5.0 5.0 4.8 4.8 5.0 5.1 5.1 5.3 5.5 5.6 6.0 6.2 6.0 5.5 5.0 4.8 4.7 4.7 4.5 4.2 4.4 4.5 4.7 4.8 4.8 4.9 5.0 4.8 4.8
5.8 5.9 5.9 5.8 5.7 5.5 5.4 5.3 5.2 5.0 5.0 5.0 5.0 5.0 5.0 5.0 5.1 5.1 5.5 5.9 5.8 5.7 5.9 6.1 6.1 6.0 6.1 5.9 4.6 4.5 5.0 5.0 4.7 4.7 4.1 4.5 4.3 4.6 4.8 4.7 4.8 4.7 4.6
5.8 5.9 5.7 5.5 5.3 5.3 5.3 5.1 5.0 4.8 4.8 4.8 4.8 5.0 5.1 5.2 5.2 5.3 5.7 5.9 5.8 5.7 5.9 6.0 6.1 6.1 6.1 5.9 5.4 4.9 5.1 5.2 5.1 5.1 4.8 4.8 4.7 4.6 4.7 4.8 4.9 4.8 4.6
5.9 5.6 5.3 5.1 5.2 5.1 4.9 4.7 4.6 4.4 4.5 4.7 4.7 4.7 4.7 4.9 5.2 5.4 5.5 5.6 5.6 5.6 5.8 6.1 6.1 6.4 6.6 6.6 6.5 6.1 5.8 5.6 5.2 5.3 5.1 5.1 5.1 5.1 5.0 4.8 4.9 5.0 4.9
5.5 5.4 5.2 5.1 5.0 4.8 4.6 4.5 4.5 4.3 4.2 4.3 4.3 4.4 4.6 4.8 4.9 5.1 5.4 5.4 5.5 5.5 5.6 5.9 6.0 6.2 6.5 6.7 6.7 6.4 6.3 6.1 5.8 5.5 5.3 5.6 5.3 5.4 5.3 5.1 5.2 5.0 5.0
5.4 5.2 5.0 4.9 4.8 4.5 4.3 4.5 4.6 4.9 4.8 4.8 4.4 4.5 4.7 4.8 4.8 5.0 5.2 5.2 5.3 5.4 5.4 5.6 5.9 6.0 6.1 6.4 6.5 6.5 6.3 6.1 5.7 5.6 5.7 5.8 5.7 5.6 5.7 5.4 5.3 5.0 4.9
5.3 5.1 4.7 4.7 4.6 4.3 4.5 4.5 4.4 4.5 4.7 4.9 4.9 4.7 4.7 4.5 4.5 4.6 4.9 5.0 5.1 5.3 5.5 5.4 5.6 5.8 5.9 6.1 6.2 6.2 6.2 6.1 5.9 5.7 5.5 5.6 5.7 5.6 5.5 5.4 5.4 5.0 5.2
5.1 4.9 4.7 4.7 4.5 4.3 4.5 4.4 4.3 4.5 4.6 4.5 4.5 4.5 4.6 4.7 4.7 4.7 4.6 4.6 4.9 5.2 5.4 5.3 5.3 5.6 5.7 5.9 6.1 6.2 6.1 6.1 6.0 5.9 5.5 5.2 5.2 5.5 5.5 5.7 5.1 5.2 5.4
5.1 5.0 4.8 4.6 4.4 4.3 4.4 4.3 4.3 4.6 4.3 4.2 4.2 4.2 4.5 4.9 4.9 4.7 4.7 4.5 4.5 4.9 5.3 5.5 5.4 5.4 5.6 5.8 5.9 6.0 6.0 6.0 6.0 6.1 6.0 5.7 5.6 5.0 5.2 5.3 5.1 5.2 5.3
5.0 4.8 4.7 4.4 4.3 4.3 4.4 4.3 4.1 3.9 3.9 4.0 4.4 4.6 4.6 4.7 5.2 4.8 4.8 4.7 4.5 4.6 4.9 5.1 5.4 5.2 5.2 5.5 5.8 6.1 6.1 6.1 6.1 6.0 5.9 5.9 5.8 5.4 5.5 5.1 5.2 5.3 5.7
4.9 4.6 4.5 4.4 4.3 4.4 4.4 4.1 4.1 4.2 4.4 4.4 4.7 4.9 5.0 5.1 4.9 4.8 4.8 4.7 4.6 4.6 4.7 4.6 4.7 5.2 5.4 5.6 5.6 5.8 6.0 6.1 6.1 6.1 6.1 5.9 5.9 5.5 5.4 5.4 5.1 5.1 5.3
4.5 4.5 4.4 4.4 4.4 4.4 4.3 4.3 4.1 4.4 4.5 5.0 5.3 5.5 5.7 5.6 5.5 5.1 5.0 5.1 5.0 5.0 4.9 4.9 4.7 4.7 5.3 5.6 5.8 5.7 5.8 6.0 6.0 6.1 6.1 6.1 5.9 5.9 5.7 5.4 4.9 4.9 4.9
4.6 4.5 4.4 4.6 4.5 4.4 4.4 4.3 4.4 4.9 5.3 5.5 5.7 5.7 5.8 5.7 5.7 5.5 5.4 5.4 5.4 5.2 5.1 4.6 4.5 5.1 5.4 5.8 6.0 6.0 6.0 6.0 6.0 6.0 6.0 5.9 5.8 5.7 5.7 5.4 5.1 5.0 4.7
4.6 4.3 4.5 4.6 4.7 4.8 4.9 5.1 5.3 5.5 5.7 5.6 5.7 5.8 5.9 5.9 5.8 5.8 5.8 5.8 5.7 5.7 5.6 5.6 5.5 5.7 5.9 6.1 6.2 6.2 6.2 6.2 6.1 5.9 5.9 5.8 5.7 5.6 5.6 5.6 5.3 5.0 4.8
Wind_Speed
8 8 6 6 7 7 7 7 7 7 8 8 8 7 8 8 8 7 7 8 8 7 6 6 7 5 5 5 6 7 7 7 9 5 3 4 4 5 4 9 11 9 8
8 9 6 7 8 8 6 6 7 7 7 7 7 8 8 8 7 8 8 8 8 9 9 9 8 5 7 7 6 8 8 8 7 10 4 4 7 5 5 9 8 10 10
9 6 7 8 5 4 4 5 6 7 7 8 8 8 8 8 7 8 8 9 9 9 9 9 9 9 8 5 7 8 8 6 6 5 4 3 6 5 5 7 7 8 8
5 4 4 2 1 3 5 5 6 5 6 7 6 7 8 7 6 8 9 10 10 10 10 9 9 9 9 9 7 8 7 6 6 5 7 7 4 3 4 4 5 5 8
6 6 5 3 3 4 6 6 6 6 6 6 8 8 8 6 8 9 9 10 8 9 11 11 9 12 17 13 7 8 8 8 5 5 5 3 3 3 4 4 6 6 5
5 3 2 4 5 5 5 6 6 7 8 7 7 8 7 6 14 16 15 9 10 10 10 10 10 12 11 12 12 10 9 8 9 4 5 6 6 4 3 6 6 6 5
4 3 2 4 5 5 5 7 7 8 7 7 8 8 8 7 16 18 20 9 10 9 10 10 10 9 11 10 12 12 10 9 13 9 8 8 6 5 4 6 8 8 8
2 2 2 3 4 5 6 6 6 5 7 6 7 7 7 8 18 20 21 11 10 10 11 12 10 10 9 13 12 11 10 9 7 5 8 10 9 6 7 4 6 7 6
4 3 3 3 4 4 5 4 4 4 5 5 5 7 8 9 17 19 16 10 12 12 11 11 12 11 18 20 11 10 12 11 6 8 10 14 13 10 6 4 6 5 5
3 3 3 4 4 3 3 3 2 2 4 5 6 6 11 9 15 18 17 9 11 10 12 11 14 13 20 20 10 7 9 12 10 11 10 8 8 11 12 10 7 7 6
2 2 3 2 3 2 3 2 3 4 4 5 6 6 6 8 10 17 18 10 9 9 8 8 9 19 20 19 13 6 7 11 14 9 9 8 7 7 6 8 10 8 7
3 4 4 3 2 2 4 4 4 4 4 4 5 6 5 7 10 13 17 16 16 9 10 9 10 18 16 14 12 16 16 12 5 6 5 6 7 6 6 7 10 10 9
3 3 3 3 3 3 4 4 4 3 3 5 4 5 5 5 6 12 15 18 16 9 9 13 16 13 13 12 17 18 14 8 8 6 6 6 7 6 8 6 8 9 11
3 1 2 3 4 3 3 3 4 4 5 4 4 5 5 5 5 5 7 7 11 10 12 9 11 11 11 11 12 12 8 9 8 7 8 8 8 7 7 4 4 5 5
1 2 3 3 4 4 3 4 4 5 5 3 4 4 4 6 4 4 4 7 7 8 7 7 8 9 10 10 9 9 8 9 10 9 7 9 8 9 7 5 5 5 6
2 1 1 2 2 3 3 5 7 12 14 8 12 9 5 10 10 12 9 10 11 10 4 5 7 8 8 9 9 9 8 10 8 8 8 8 8 9 9 8 6 6 6
3 3 2 2 2 3 2 2 4 6 6 9 9 8 9 13 9 11 11 11 8 6 4 5 6 6 6 7 7 7 6 6 7 7 7 8 8 8 12 8 7 6 5
0 1 2 3 3 3 4 4 3 4 5 6 6 4 8 8 9 11 8 7 5 3 3 5 6 6 7 7 6 6 7 7 6 6 6 7 7 8 9 8 8 7 6
1 1 2 3 3 4 4 3 3 4 4 5 5 5 4 7 7 5 2 2 3 5 6 7 6 6 6 7 7 6 6 6 7 7 6 6 7 7 9 9 9 11 10
1 6 4 3 3 3 2 3 4 4 5 5 5 5 4 3 3 3 3 2 4 4 4 5 5 5 5 6 7 7 7 7 7 7 8 7 6 5 7 8 8 9 8
2 3 5 3 3 3 3 3 4 5 6 6 6 6 8 5 6 6 4 4 4 5 4 4 5 5 5 5 6 6 6 6 7 7 8 8 8 8 6 6 7 8 8
3 4 4 4 3 4 4 4 5 6 6 7 7 7 7 4 4 6 6 5 5 5 4 3 3 4 4 5 6 6 6 7 8 8 9 9 9 9 8 6 7 7 8
3 4 4 4 4 5 5 6 6 6 6 7 8 7 7 6 5 5 5 7 5 6 4 3 3 5 4 4 6 5 7 8 8 8 9 9 10 9 8 8 7 7 7
4 5 5 5 4 5 5 6 6 6 6 6 7 8 7 7 6 6 6 7 6 4 3 3 5 5 5 6 9 10 10 12 11 7 9 10 9 10 8 8 8 10 7
4 5 5 6 5 5 5 5 4 5 5 7 7 7 7 6 7 7 7 6 6 6 6 4 5 8 9 12 12 14 17 15 12 13 10 9 11 12 10 9 9 9 10
5 5 5 4 4 3 3 3 3 5 6 6 6 6 6 7 7 8 8 9 8 7 8 6 10 14 15 13 13 19 16 15 12 11 10 7 8 8 8 10 12 9 10
Wind_Direction
79 64 30 28 37 42 41 33 29 30 25 26 15 10 7 358 356 3 360 355 346 336 334 298 283 250 230 219 227 228 229 222 252 274 240 240 249 232 254 248 249 249 247
73 61 41 38 30 28 28 32 33 31 28 24 16 13 3 2 10 11 353 342 337 332 328 327 312 307 270 239 225 228 229 228 229 261 256 244 228 214 240 253 247 241 248
60 57 42 38 30 19 21 34 34 32 28 25 23 11 2 1 10 357 338 331 325 316 311 311 310 311 300 277 235 229 227 227 231 242 269 248 236 229 224 241 242 243 243
106 104 82 70 64 31 31 30 33 27 28 25 13 7 2 354 359 347 337 327 318 318 310 301 297 294 290 294 291 261 237 212 209 217 235 248 244 211 221 233 247 232 248
64 53 34 354 34 38 28 20 17 15 11 14 14 9 359 353 4 354 344 330 322 324 321 309 303 298 301 289 280 279 266 246 209 220 245 260 257 223 227 237 241 252 250
75 68 12 19 24 34 30 20 13 10 12 9 9 3 1 356 353 348 345 335 325 329 331 326 315 309 310 318 313 296 278 259 244 213 222 232 246 236 234 240 239 244 263
80 48 15 31 34 31 38 25 21 22 16 12 11 6 359 349 359 355 350 341 330 333 333 335 335 341 344 346 332 316 304 277 248 254 242 233 239 218 214 238 236 235 241
113 54 34 72 55 46 45 31 25 17 13 9 5 359 355 2 4 0 354 343 341 339 339 336 332 331 353 353 342 336 329 315 297 276 250 259 242 235 210 232 234 242 250
161 118 93 83 59 44 37 17 17 12 10 4 358 359 360 355 1 5 359 351 350 347 341 340 339 339 337 339 334 329 320 310 310 296 277 270 262 246 221 209 234 226 246
124 146 123 88 76 43 7 2 15 14 1 2 3 6 7 356 357 4 7 1 355 351 349 344 342 332 329 329 323 310 302 299 316 320 314 303 277 267 244 222 229 222 228
86 112 89 79 73 13 350 353 351 354 353 359 358 346 350 353 347 0 8 7 359 344 341 339 336 337 331 326 323 297 288 297 299 299 296 296 292 283 259 235 227 220 220
80 65 43 31 13 352 338 326 336 339 337 336 340 340 340 342 348 354 1 5 1 357 355 338 336 336 334 339 353 344 342 333 299 288 286 286 288 282 275 250 238 230 233
91 58 21 352 337 341 334 326 326 320 311 310 318 314 314 332 338 349 355 355 356 357 348 340 339 341 344 356 358 358 355 351 342 344 327 308 305 295 290 275 252 246 245
98 22 321 318 316 316 297 289 291 298 305 301 302 300 302 314 324 344 350 347 347 352 347 345 352 356 3 6 4 7 6 2 355 344 336 333 318 306 296 271 261 244 244
66 358 346 341 329 317 287 263 277 268 230 282 286 272 283 296 288 299 314 336 339 333 337 3 6 7 5 7 5 5 4 8 2 353 346 344 337 335 324 310 286 262 241
51 42 315 326 330 322 330 325 240 254 289 264 260 245 276 239 278 292 300 315 331 336 345 356 351 355 357 356 360 355 358 358 360 349 360 350 341 338 330 323 308 286 267
193 206 257 289 295 290 296 292 308 320 284 284 294 292 240 260 270 279 291 315 311 330 344 335 329 328 326 331 335 340 338 336 337 339 352 341 347 343 334 327 331 314 281
96 247 265 284 277 277 264 265 277 282 297 308 306 276 290 276 264 266 292 316 315 308 324 318 316 312 309 306 309 316 322 329 333 334 335 332 345 344 334 331 328 327 320
68 306 285 284 282 274 279 290 293 299 287 284 303 298 288 291 293 274 215 252 297 304 314 315 313 312 313 311 304 302 304 313 321 328 326 328 330 333 334 332 326 320 312
305 287 286 301 310 316 305 291 305 306 290 288 289 274 298 311 285 284 278 268 276 279 295 299 307 311 313 318 318 314 312 314 322 326 327 324 314 315 315 326 319 319 314
273 278 284 291 286 261 270 278 279 278 277 291 285 279 252 263 279 275 276 254 261 269 275 279 299 305 314 318 323 326 320 314 318 323 323 321 320 319 308 301 309 316 320
255 278 278 274 283 275 277 282 285 292 283 283 290 285 260 254 271 272 268 266 258 249 254 255 275 286 296 309 317 319 312 310 317 319 318 317 315 313 313 305 313 318 322
254 271 275 280 272 281 288 288 285 287 287 292 296 298 301 292 279 282 278 286 267 265 277 263 266 292 300 309 313 309 309 308 313 314 309 311 309 309 307 306 309 308 311
267 267 273 281 290 291 289 295 303 287 296 313 320 319 317 310 310 314 305 321 304 275 237 270 293 298 304 317 324 321 321 322 316 308 306 299 296 299 299 296 294 295 296
272 272 273 276 283 298 301 305 301 320 342 352 345 340 336 337 340 344 351 349 346 352 348 352 339 342 338 333 334 336 332 334 326 317 304 293 289 293 288 290 292 295 296
267 266 274 293 292 287 297 314 337 353 357 352 351 356 4 10 16 20 19 21 13 6 354 347 344 346 341 336 335 332 333 338 338 335 322 302 299 300 299 297 298 299 300